When you browse on this site, cookies collect data to enhance your experience and personalize the content and advertising you see.
Visit our Privacy Policy to learn more. By continuing to use the site, you agree to this use of cookies and data.
  • In Germany
  • List of Countries
  • For 7 days
  • Water Temperature
  • Weather Map
  • Weather Widgets
  • user-avatar
    Login

    Hourly Weather Salta

    Today, 7 December, Saturday

    Time Temperature Precipitation Wind Pressure Humidity
    00:00 +20°C° 0 mm 1 mps 651 mmHg 80%
    01:00 +20°C° 0 mm 1 mps 651 mmHg 81%
    02:00 +17°C° 0 mm 0 mps 650 mmHg 79%
    03:00 +17°C° 0 mm 0 mps 650 mmHg 80%
    04:00 +16°C° 0 mm 0 mps 650 mmHg 82%
    05:00 +16°C° 0 mm 0 mps 650 mmHg 83%
    06:00 +18°C° 0 mm 0 mps 650 mmHg 77%
    07:00 +22°C° 0 mm 1 mps 651 mmHg 70%
    08:00 +23°C° 0 mm 1 mps 652 mmHg 64%
    09:00 +24°C° 0 mm 2 mps 652 mmHg 61%
    10:00 +25°C° 0 mm 2 mps 651 mmHg 58%
    11:00 +26°C° 0 mm 3 mps 651 mmHg 55%
    12:00 +26°C° 0.1 mm 3 mps 650 mmHg 56%
    13:00 +26°C° 0.1 mm 3 mps 650 mmHg 57%
    14:00 +26°C° 0.1 mm 3 mps 649 mmHg 58%
    15:00 +25°C° 0.1 mm 3 mps 648 mmHg 61%
    16:00 +25°C° 0.1 mm 2 mps 648 mmHg 65%
    17:00 +24°C° 0.1 mm 2 mps 647 mmHg 68%
    18:00 +23°C° 0.1 mm 1 mps 648 mmHg 72%
    19:00 +22°C° 0.1 mm 1 mps 648 mmHg 76%
    20:00 +21°C° 0.1 mm 1 mps 649 mmHg 79%
    21:00 +21°C° 0.1 mm 1 mps 649 mmHg 81%
    22:00 +20°C° 0.1 mm 1 mps 649 mmHg 82%
    23:00 +20°C° 0.1 mm 1 mps 650 mmHg 83%

    Tomorrow, 8 December, Sunday

    Time Temperature Precipitation Wind Pressure Humidity
    00:00 +20°C° 0 mm 1 mps 649 mmHg 83%
    01:00 +20°C° 0 mm 1 mps 649 mmHg 82%
    02:00 +20°C° 0 mm 1 mps 649 mmHg 82%
    03:00 +20°C° 0 mm 1 mps 649 mmHg 83%
    04:00 +19°C° 0 mm 1 mps 649 mmHg 83%
    05:00 +17°C° 0 mm 0 mps 649 mmHg 84%
    06:00 +21°C° 0 mm 1 mps 650 mmHg 78%
    07:00 +22°C° 0 mm 1 mps 650 mmHg 72%
    08:00 +24°C° 0 mm 1 mps 651 mmHg 65%
    09:00 +25°C° 0 mm 1 mps 651 mmHg 62%
    10:00 +26°C° 0 mm 2 mps 651 mmHg 58%
    11:00 +27°C° 0 mm 2 mps 651 mmHg 55%
    12:00 +27°C° 0.9 mm 2 mps 651 mmHg 56%
    13:00 +27°C° 0.9 mm 2 mps 650 mmHg 57%
    14:00 +27°C° 0.9 mm 2 mps 650 mmHg 58%
    15:00 +26°C° 0.9 mm 2 mps 649 mmHg 63%
    16:00 +25°C° 0.9 mm 2 mps 648 mmHg 67%
    17:00 +24°C° 0.9 mm 2 mps 648 mmHg 72%
    18:00 +23°C° 0.7 mm 2 mps 648 mmHg 76%
    19:00 +21°C° 0.7 mm 2 mps 649 mmHg 81%
    20:00 +20°C° 0.7 mm 2 mps 649 mmHg 85%
    21:00 +20°C° 0.2 mm 2 mps 650 mmHg 84%
    22:00 +21°C° 0.2 mm 1 mps 650 mmHg 82%
    23:00 +20°C° 0.2 mm 1 mps 651 mmHg 80%

    Day after tomorrow, 9 December, Monday

    Time Temperature Precipitation Wind Pressure Humidity
    00:00 +20°C° 0.1 mm 1 mps 651 mmHg 79%
    01:00 +20°C° 0.1 mm 1 mps 651 mmHg 77%
    02:00 +18°C° 0.1 mm 0 mps 650 mmHg 76%
    03:00 +18°C° 0 mm 0 mps 650 mmHg 76%
    04:00 +19°C° 0 mm 1 mps 650 mmHg 76%
    05:00 +19°C° 0 mm 1 mps 650 mmHg 76%
    06:00 +21°C° 0 mm 1 mps 651 mmHg 71%
    07:00 +23°C° 0 mm 1 mps 652 mmHg 65%
    08:00 +24°C° 0 mm 1 mps 653 mmHg 60%
    09:00 +25°C° 0.2 mm 1 mps 653 mmHg 56%
    10:00 +27°C° 0.2 mm 2 mps 653 mmHg 53%
    11:00 +28°C° 0.2 mm 2 mps 653 mmHg 49%
    12:00 +28°C° 0.4 mm 2 mps 652 mmHg 48%
    13:00 +29°C° 0.4 mm 2 mps 651 mmHg 47%
    14:00 +29°C° 0.4 mm 2 mps 651 mmHg 45%
    15:00 +28°C° 0.2 mm 2 mps 650 mmHg 48%
    16:00 +27°C° 0.2 mm 2 mps 649 mmHg 51%
    17:00 +26°C° 0.2 mm 1 mps 649 mmHg 54%
    18:00 +25°C° 0.1 mm 1 mps 649 mmHg 57%
    19:00 +24°C° 0.1 mm 1 mps 650 mmHg 61%
    20:00 +23°C° 0.1 mm 2 mps 650 mmHg 64%
    21:00 +23°C° 0.1 mm 2 mps 650 mmHg 68%
    22:00 +22°C° 0.1 mm 1 mps 650 mmHg 72%
    23:00 +21°C° 0.1 mm 1 mps 650 mmHg 75%

    10 December, Tuesday

    Time Temperature Precipitation Wind Pressure Humidity
    00:00 +21°C° 0 mm 1 mps 650 mmHg 76%
    01:00 +21°C° 0 mm 1 mps 650 mmHg 76%
    02:00 +20°C° 0 mm 1 mps 649 mmHg 77%
    03:00 +20°C° 0 mm 1 mps 649 mmHg 77%
    04:00 +20°C° 0 mm 1 mps 649 mmHg 76%
    05:00 +19°C° 0 mm 1 mps 649 mmHg 76%
    06:00 +22°C° 0 mm 1 mps 650 mmHg 70%
    07:00 +24°C° 0 mm 1 mps 651 mmHg 63%
    08:00 +24°C° 0 mm 0 mps 652 mmHg 56%
    09:00 +27°C° 0.1 mm 1 mps 652 mmHg 53%
    10:00 +28°C° 0.1 mm 2 mps 653 mmHg 49%
    11:00 +30°C° 0.1 mm 3 mps 653 mmHg 45%
    12:00 +30°C° 0.3 mm 3 mps 652 mmHg 45%
    13:00 +30°C° 0.3 mm 2 mps 651 mmHg 44%
    14:00 +30°C° 0.3 mm 2 mps 651 mmHg 44%
    15:00 +30°C° 0.3 mm 2 mps 650 mmHg 46%
    16:00 +29°C° 0.3 mm 2 mps 649 mmHg 48%
    17:00 +29°C° 0.3 mm 2 mps 649 mmHg 51%
    18:00 +27°C° 0.4 mm 2 mps 649 mmHg 58%
    19:00 +25°C° 0.4 mm 1 mps 649 mmHg 65%
    20:00 +23°C° 0.4 mm 1 mps 649 mmHg 71%
    21:00 +23°C° 0.8 mm 1 mps 649 mmHg 74%
    22:00 +22°C° 0.8 mm 1 mps 650 mmHg 77%
    23:00 +21°C° 0.8 mm 1 mps 650 mmHg 80%

    11 December, Wednesday

    Time Temperature Precipitation Wind Pressure Humidity
    00:00 +21°C° 0.1 mm 1 mps 649 mmHg 79%
    01:00 +21°C° 0.1 mm 1 mps 649 mmHg 78%
    02:00 +20°C° 0.1 mm 1 mps 649 mmHg 78%
    03:00 +20°C° 0 mm 1 mps 648 mmHg 77%
    04:00 +20°C° 0 mm 1 mps 648 mmHg 77%
    05:00 +20°C° 0 mm 1 mps 648 mmHg 77%
    06:00 +22°C° 0 mm 1 mps 649 mmHg 70%
    07:00 +24°C° 0 mm 1 mps 649 mmHg 64%
    08:00 +24°C° 0 mm 0 mps 650 mmHg 58%
    09:00 +28°C° 0 mm 1 mps 650 mmHg 52%
    10:00 +30°C° 0 mm 2 mps 650 mmHg 47%
    11:00 +31°C° 0 mm 3 mps 650 mmHg 42%
    12:00 +33°C° 0 mm 3 mps 649 mmHg 39%
    13:00 +34°C° 0 mm 3 mps 649 mmHg 37%
    14:00 +35°C° 0 mm 3 mps 648 mmHg 35%
    15:00 +34°C° 0 mm 3 mps 647 mmHg 36%
    16:00 +34°C° 0 mm 3 mps 647 mmHg 36%
    17:00 +34°C° 0 mm 2 mps 646 mmHg 37%
    18:00 +31°C° 0 mm 2 mps 646 mmHg 43%
    19:00 +28°C° 0 mm 2 mps 646 mmHg 49%
    20:00 +26°C° 0 mm 1 mps 646 mmHg 56%
    21:00 +26°C° 0 mm 1 mps 646 mmHg 57%
    22:00 +25°C° 0 mm 1 mps 647 mmHg 59%
    23:00 +25°C° 0 mm 1 mps 647 mmHg 61%

    12 December, Thursday

    Time Temperature Precipitation Wind Pressure Humidity
    00:00 +24°C° 0 mm 1 mps 647 mmHg 62%
    01:00 +24°C° 0 mm 1 mps 646 mmHg 63%
    02:00 +23°C° 0 mm 1 mps 646 mmHg 64%
    03:00 +23°C° 0.1 mm 1 mps 647 mmHg 66%
    04:00 +23°C° 0.1 mm 1 mps 647 mmHg 67%
    05:00 +22°C° 0.1 mm 1 mps 647 mmHg 69%
    06:00 +24°C° 0.2 mm 1 mps 648 mmHg 67%
    07:00 +25°C° 0.2 mm 1 mps 649 mmHg 65%
    08:00 +26°C° 0.2 mm 1 mps 650 mmHg 64%
    09:00 +27°C° 0.9 mm 2 mps 650 mmHg 63%
    10:00 +27°C° 0.9 mm 3 mps 651 mmHg 62%
    11:00 +28°C° 0.9 mm 4 mps 651 mmHg 61%
    12:00 +28°C° 1.1 mm 4 mps 650 mmHg 63%
    13:00 +27°C° 1.1 mm 4 mps 650 mmHg 65%
    14:00 +27°C° 1.1 mm 3 mps 649 mmHg 67%
    15:00 +26°C° 0.4 mm 3 mps 649 mmHg 70%
    16:00 +25°C° 0.4 mm 3 mps 648 mmHg 72%
    17:00 +24°C° 0.4 mm 3 mps 648 mmHg 75%
    18:00 +22°C° 1.2 mm 3 mps 648 mmHg 79%
    19:00 +21°C° 1.2 mm 2 mps 649 mmHg 83%
    20:00 +20°C° 1.2 mm 2 mps 650 mmHg 86%
    21:00 +20°C° 0.2 mm 2 mps 650 mmHg 84%
    22:00 +19°C° 0.2 mm 2 mps 651 mmHg 82%
    23:00 +19°C° 0.2 mm 2 mps 651 mmHg 80%
    Show more